EW7837 Weather Reports


time (UTC)temp
C
wind
direction
speed
KPH
gust
KPH
rain 1hr
cm
rain 24hr
cm
rain mn
cm
humidity
%
barometer
mb
20260510020048 18 241 0.0 0.0 0.00 0.00 0.00 78 1009.1
20260510014543 18 241 0.0 0.0 0.00 0.00 0.00 77 1009.0
20260510013043 19 241 0.0 0.0 0.00 0.00 0.00 75 1009.1
20260510011520 20 240 0.0 0.0 0.00 0.00 0.00 74 1008.9
20260510010016 20 250 0.0 0.0 0.00 0.00 0.00 72 1009.0
20260510004509 21 250 0.0 0.0 0.00 0.00 0.00 71 1008.9
20260510003010 21 202 0.0 0.0 0.00 0.00 0.00 70 1008.9
20260510001509 21 261 0.0 0.0 0.00 0.00 0.00 69 1008.9
20260510000008 22 262 0.0 0.0 0.00 0.00 0.00 69 1008.8
20260509234612 22 242 0.0 0.0 0.00 0.00 0.00 69 1008.9
20260509233037 22 243 0.0 0.0 0.00 0.00 0.00 69 1008.9
20260509231537 21 243 0.0 0.0 0.00 0.00 0.00 69 1008.6
20260509230006 21 250 0.0 0.0 0.00 0.00 0.00 70 1009.1
20260509224504 21 262 0.0 0.0 0.00 0.00 0.00 70 1009.4
20260509223036 21 253 0.0 0.0 0.00 0.00 0.00 70 1009.5
20260509221537 21 223 0.0 0.0 0.00 0.00 0.00 70 1009.6
20260509220030 21 252 0.0 0.0 0.00 0.00 0.00 71 1009.7
20260509214530 21 262 0.0 0.0 0.00 0.00 0.00 70 1009.7
20260509213030 22 250 1.6 0.0 0.00 0.00 0.00 70 1009.6
20260509211553 21 271 1.6 0.0 0.00 0.00 0.00 71 1010.0
20260509210025 22 263 0.0 0.0 0.00 0.00 0.00 69 1010.1
20260509204524 21 265 1.6 0.0 0.00 0.00 0.00 69 1010.1
20260509203037 21 244 0.0 0.0 0.00 0.00 0.00 71 1010.1
20260509201524 21 248 0.0 0.0 0.00 0.00 0.00 71 1010.1
20260509200053 22 259 0.0 0.0 0.00 0.00 0.00 70 1010.1
20260509194554 21 274 0.0 0.0 0.00 0.00 0.00 71 1010.1
20260509193023 21 267 0.0 0.0 0.00 0.00 0.00 72 1010.2
20260509191521 21 236 1.6 0.0 0.00 0.00 0.00 72 1010.3
20260509190052 21 254 1.6 0.0 0.00 0.00 0.00 72 1010.2
20260509184548 22 264 0.0 0.0 0.00 0.00 0.00 72 1010.2
20260509183043 22 269 0.0 0.0 0.00 0.00 0.00 71 1010.4
20260509181539 21 232 0.0 0.0 0.00 0.00 0.00 73 1010.4
20260509180037 21 241 0.0 0.0 0.00 0.00 0.00 73 1010.5
20260509174535 21 219 0.0 0.0 0.00 0.00 0.00 73 1010.5
20260509173028 21 245 0.0 0.0 0.00 0.00 0.00 74 1010.1
20260509171527 21 245 0.0 0.0 0.00 0.00 0.00 74 1010.6
20260509170025 21 245 0.0 0.0 0.00 0.00 0.00 74 1010.6
20260509164522 21 245 0.0 0.0 0.00 0.00 0.00 76 1010.6
20260509163020 20 245 0.0 0.0 0.00 0.00 0.00 79 1010.6
20260509161516 18 245 0.0 0.0 0.00 0.00 0.00 81 1010.6
20260509160010 18 245 0.0 0.0 0.00 0.00 0.00 83 1010.6
20260509154506 18 245 0.0 0.0 0.00 0.00 0.00 83 1010.6
20260509153101 18 245 0.0 0.0 0.00 0.00 0.00 84 1010.6
20260509151555 17 245 0.0 0.0 0.00 0.00 0.00 85 1010.6
20260509150051 17 245 0.0 0.0 0.00 0.00 0.00 85 1010.6
20260509144548 17 245 0.0 0.0 0.00 0.00 0.00 85 1010.6
20260509143017 17 245 0.0 0.0 0.00 0.00 0.00 86 1010.6
20260509141517 17 245 0.0 0.0 0.00 0.00 0.00 86 1010.6
20260509140047 17 245 0.0 0.0 0.00 0.00 0.00 86 1010.6
20260509134549 17 245 0.0 0.0 0.00 0.00 0.00 86 1010.2
20260509133039 17 245 0.0 0.0 0.00 0.00 0.00 86 1010.1
20260509131536 17 245 0.0 0.0 0.00 0.00 0.00 86 1010.2
20260509130035 17 245 0.0 0.0 0.00 0.00 0.00 86 1010.1
20260509124534 17 245 0.0 0.0 0.00 0.00 0.00 87 1010.1
20260509123004 17 245 0.0 0.0 0.00 0.00 0.00 87 1010.1
20260509121503 17 245 0.0 0.0 0.00 0.00 0.00 87 1010.1
20260509120100 17 245 0.0 0.0 0.00 0.00 0.00 86 1010.1
20260509114602 17 245 0.0 0.0 0.00 0.00 0.00 86 1010.1
20260509113058 17 245 0.0 0.0 0.00 0.00 0.00 86 1010.1
20260509111558 17 245 0.0 0.0 0.00 0.00 0.00 86 1010.1
20260509110026 17 245 0.0 0.0 0.00 0.00 0.00 86 1010.1
20260509104529 17 245 0.0 0.0 0.00 0.00 0.00 86 1010.1
20260509103024 17 245 0.0 0.0 0.00 0.00 0.00 87 1010.0
20260509101523 17 245 0.0 0.0 0.00 0.00 0.00 87 1010.2
20260509100022 17 245 0.0 0.0 0.00 0.00 0.00 87 1010.3
20260509094551 17 245 0.0 0.0 0.00 0.00 0.00 87 1010.5
20260509093049 17 245 0.0 0.0 0.00 0.00 0.00 86 1010.5
20260509091550 17 245 0.0 0.0 0.00 0.00 0.00 86 1010.6
20260509090046 17 245 0.0 0.0 0.00 0.00 0.00 86 1010.8
20260509084549 18 245 0.0 0.0 0.00 0.00 0.00 85 1010.6
20260509083043 18 245 0.0 0.0 0.00 0.00 0.00 85 1010.8
20260509081543 18 245 0.0 0.0 0.00 0.00 0.00 85 1011.0
20260509080105 18 245 0.0 0.0 0.00 0.00 0.00 85 1011.1
20260509074512 18 245 0.0 0.0 0.00 0.00 0.00 85 1011.1
20260509073032 18 245 0.0 0.0 0.00 0.00 0.00 85 1011.1
20260509071509 18 245 0.0 0.0 0.00 0.00 0.00 84 1011.3
20260509070010 18 245 0.0 0.0 0.00 0.00 0.00 84 1011.4
20260509064509 18 245 0.0 0.0 0.00 0.00 0.00 85 1011.4
20260509063008 18 245 0.0 0.0 0.00 0.00 0.00 85 1011.5
20260509061549 18 245 0.0 0.0 0.00 0.00 0.00 85 1011.1
20260509060038 18 245 0.0 0.0 0.00 0.00 0.00 85 1011.6
20260509054537 18 245 0.0 0.0 0.00 0.00 0.00 85 1011.6
20260509053034 18 245 0.0 0.0 0.00 0.00 0.00 85 1011.7
20260509051538 18 245 0.0 0.0 0.00 0.00 0.00 85 1011.7
20260509050038 18 245 0.0 0.0 0.00 0.00 0.00 85 1011.7
20260509044529 18 245 0.0 0.0 0.00 0.00 0.00 85 1011.6
20260509043040 18 245 0.0 0.0 0.00 0.00 0.00 85 1011.5
20260509041526 18 245 0.0 0.0 0.00 0.00 0.00 85 1011.3
20260509040026 18 245 0.0 0.0 0.00 0.00 0.00 85 1011.1
20260509034523 18 245 0.0 0.0 0.00 0.00 0.00 86 1011.1
20260509033023 18 245 0.0 0.0 0.00 0.00 0.00 86 1011.1
20260509031521 18 245 0.0 0.0 0.00 0.00 0.00 85 1010.9
20260509030020 18 245 0.0 0.0 0.00 0.00 0.00 85 1010.7
20260509024513 18 245 0.0 0.0 0.00 0.00 0.00 83 1010.6
20260509023020 18 245 0.0 0.0 0.00 0.00 0.00 82 1010.6
20260509021518 19 245 0.0 0.0 0.00 0.00 0.00 80 1010.6